This is the latest recevied weather packets stored in our database for station/object W6SNO-1. If no packets are shown the sender has not sent any weather packets the latest 10 day(s).
| Time | Temp. | Humidity | Pressure | Rain* | Wind** | Luminosity | Snow |
|---|---|---|---|---|---|---|---|
| 1777734889 | 12.78° C | 86% | 1013.7 hPa | 0 mm | - | 70 W/m² | - |
| 1777734587 | 12.78° C | 87% | 1013.6 hPa | 0 mm | - | 62 W/m² | - |
| 1777734283 | 12.78° C | 87% | 1013.5 hPa | 0 mm | - | 56 W/m² | - |
| 1777733979 | 12.78° C | 87% | 1013.8 hPa | 0 mm | - | 52 W/m² | - |
| 1777733676 | 12.78° C | 87% | 1013.5 hPa | 0 mm | - | 48 W/m² | - |
| 1777733373 | 12.78° C | 87% | 1013.6 hPa | 0 mm | - | 38 W/m² | - |
| 1777733070 | 12.78° C | 87% | 1013.5 hPa | 0 mm | - | 31 W/m² | - |
| 1777732766 | 12.78° C | 87% | 1013.5 hPa | 0 mm | - | 31 W/m² | - |
| 1777732463 | 12.78° C | 87% | 1013.3 hPa | 0 mm | - | 30 W/m² | - |
| 1777732160 | 12.78° C | 87% | 1013.2 hPa | 0 mm | - | 31 W/m² | - |
| 1777731857 | 12.78° C | 87% | 1013.2 hPa | 0 mm | - | 22 W/m² | - |
| 1777731554 | 12.78° C | 87% | 1013.3 hPa | 0 mm | - | 22 W/m² | - |
| 1777731252 | 12.78° C | 87% | 1013.2 hPa | 0 mm | - | 17 W/m² | - |
| 1777730949 | 12.78° C | 87% | 1013.5 hPa | 0 mm | - | 17 W/m² | - |
| 1777730648 | 12.78° C | 88% | 1013.2 hPa | 0 mm | - | 16 W/m² | - |
| 1777730343 | 12.78° C | 88% | 1013.3 hPa | 0 mm | - | 13 W/m² | - |
| 1777730040 | 12.22° C | 88% | 1013.3 hPa | 0 mm | - | 11 W/m² | - |
| 1777729736 | 12.22° C | 88% | 1013.1 hPa | 0 mm | - | 9 W/m² | - |
| 1777729433 | 12.78° C | 89% | 1013.1 hPa | 0 mm | - | 7 W/m² | - |
| 1777729129 | 12.22° C | 89% | 1013.1 hPa | 0 mm | - | 6 W/m² | - |
| 1777728826 | 12.22° C | 89% | 1013.1 hPa | 0 mm | - | 4 W/m² | - |
| 1777728523 | 12.22° C | 89% | 1013.2 hPa | 0 mm | - | 4 W/m² | - |
| 1777728220 | 12.22° C | 88% | 1012.9 hPa | 0 mm | - | 2 W/m² | - |
| 1777727917 | 12.22° C | 89% | 1013.1 hPa | 0 mm | - | 1 W/m² | - |
| 1777727614 | 12.22° C | 89% | 1013 hPa | 0 mm | - | 1 W/m² | - |
* Rain latest hour (hover to see other rain measurements)
** Current wind speed in m/s (hover to see current wind gust speed)